Regional Weather Roundup
Issued by NWS Sterling, VA

Home | Current Version | Previous Version | Graphics & Text | Print | Product List | Glossary On
Versions: 1 2 3 4 5 6 7 8 9 10 11 12 13 14 15 16 17 18 19 20 21 22 23 24 25 26 27 28 29 30 31 32 33 34 35 36 37 38 39 40 41
000
ASUS41 KLWX 251210
RWRLWX

REGIONAL WEATHER ROUNDUP
NATIONAL WEATHER SERVICE BALTIMORE MD/WASHINGTON DC
700 AM EST THU DEC 25 2014

Note: "FAIR" indicates few or no clouds below 12,000 feet
with no significant weather and/or obstructions to visibility.
 TC=TEMPERATURE CELSIUS

 * =Non NWS site. Station does not report precipitation (e.g. rain,
    snow, etc.), thunder, or fog.

DCZ001-MDZ009-015-VAZ040>042-051-053>054-251300-
WASHINGTON METRO

CITY           SKY/WX    TMP DP  RH WIND       PRES   REMARKS
WASHINGTON NAT CLOUDY    51  40  65 NW13      29.77R
DULLES         CLOUDY    47  37  68 NW5       29.77R
ANDREWS AFB    CLOUDY    49  41  74 NW13      29.76R
FT BELVOIR     CLOUDY    49  42  78 NW10      29.77R
QUANTICO       CLOUDY    51  42  71 N7        29.79R
COLLEGE PARK*  CLOUDY    50  39  66 NW9G18    29.74R
LEESBURG*      CLOUDY    46  37  71 NW20G26   29.77R
GAITHERSBURG*  CLOUDY    46  34  61 W13G23    29.79R

$$

MDZ006>007-011-014-251300-
BALTIMORE METRO

CITY           SKY/WX    TMP DP  RH WIND       PRES   REMARKS
BWI AIRPORT    CLOUDY    48  39  71 W13       29.74R
MD SCIENCE CTR   N/A     49  39  68 MISG      29.74R
MARTIN STATE   MOCLDY    50  45  81 W7        29.74R
ANNAPOLIS      CLOUDY    50  39  66 NW12      29.74R
FORT MEADE*    CLOUDY    46  39  76 W14       29.77R

$$

MDZ012-015-019>023-251300-
MARYLAND EASTERN SHORE

CITY           SKY/WX    TMP DP  RH WIND       PRES   REMARKS
OCEAN CITY     CLOUDY    58  57  97 W6        29.70R
SALISBURY      CLOUDY    58  54  86 NW21G26   29.71R
BAY BRIDGE AP*   N/A     48  41  76 NW12G17   29.74R
CAMBRIDGE*     CLOUDY    52  46  82 N7        29.73R
EASTON*        CLOUDY    50  48  93 NW12G18   29.76R

$$

MDZ017>025-251300-
SOUTHERN MARYLAND

CITY           SKY/WX    TMP DP  RH WIND       PRES   REMARKS
PATUXENT RIVER CLOUDY    51  45  79 NW10      29.74R
ST INIGOES     CLOUDY    51  44  77 MISG      29.74R
LEONARDTOWN*   CLOUDY    50  45  81 CALM      29.76R

$$

MDZ003>005-251300-
NORTH CENTRAL MARYLAND

CITY           SKY/WX    TMP DP  RH WIND       PRES   REMARKS
FREDERICK*     MOCLDY    48  34  57 MISG      29.79R
HAGERSTOWN APT CLOUDY    46  32  58 W16       29.76R
WESTMINSTER*   CLOUDY    46  39  76 W12G21    29.73R

$$

MDZ501>502-251300-
WESTERN MARYLAND

CITY           SKY/WX    TMP DP  RH WIND       PRES   REMARKS
OAKLAND*       CLOUDY    32 N/A N/A W16G29    29.75R WCI  21
CUMBERLAND*    CLOUDY    45  30  57 S6        29.82S

$$

VAZ025>031-251300-
SHENANDOAH VALLEY

CITY           SKY/WX    TMP DP  RH WIND       PRES   REMARKS
WINCHESTER*    CLOUDY    46  30  53 W14G20    29.77S
FRONT ROYAL*   PTSUNNY   46  32  57 W7        29.78R
LURAY*         CLOUDY    48  34  57 W14       29.81R
NEW MARKET*    PTSUNNY   46  31  56 SW9G16    29.81R
STAUNTON*      CLOUDY    46  31  56 W9G22     29.84R
WAYNESBORO*    FAIR      44  32  63 W12G20    29.82R

$$

WVZ021-048>050-054>055-251300-
EASTERN WEST VIRGINIA PANHANDLE

CITY           SKY/WX    TMP DP  RH WIND       PRES   REMARKS
MARTINSBURG    CLOUDY    47  28  47 W14G20    29.77R
PETERSBURG*    PTCLDY    44  26  48 W7G22     29.81S

$$

VAZ036>039-050-251300-
CENTRAL FOOTHILLS

CITY           SKY/WX    TMP DP  RH WIND       PRES   REMARKS
CHARLOTTESVILL CLOUDY    50  33  52 N12       29.80R
CULPEPER*      CLOUDY    52  36  54 W3        29.78R
ORANGE*        CLOUDY    50  37  62 SW7       29.80R
GORDONSVILLE*  FAIR      50  34  53 W5        29.79R
WARRENTON*     FAIR      50  41  71 W13G18    29.77R

$$

VAZ055>057-251300-
NORTH AND CENTRAL PIEDMONT

CITY           SKY/WX    TMP DP  RH WIND       PRES   REMARKS
FREDERICKSBRG* CLOUDY    52  52  98 CALM      29.77R
STAFFORD*      CLOUDY    48  48 100 CALM      29.81R

$$

NCZ024-NYZ072-PAZ021-071-VAZ022-071-251300-
OTHER REGIONAL OBSERVATIONS

CITY           SKY/WX    TMP DP  RH WIND       PRES   REMARKS
NEW YORK CITY  LGT RAIN  51  42  71 W10G22    29.63R
PHILADELPHIA   CLOUDY    51  40  65 W13G22    29.70R
PITTSBURGH     CLOUDY    40  32  73 SW10G21   29.79R
ROANOKE        MOCLDY    45  32  60 W18G29    29.89R
RICHMOND       CLOUDY    56  44  64 W18       29.79R
RALEIGH        CLOUDY    53  41  63 NW3       29.86R

$$

ANZ530>537-251300-
MARINE OBSERVATIONS

STATION/POSITION TIME  TEMP    WIND        PRES
                       AIR SEA DIR/SP/G
                 (UTC) (F)     (DEG/KT/KT) (MB)
THOMAS PT LIGHT  1200   50 42  310/ 20/ 23 1008.1R
BALT KEY BRIDGE  1200   49     280/ 14/ 16 1006.5R
COVE POINT       1200   47     340/  9/ 11 1007.1R
LEWISETTA        1200   54 44  340/ 16/ 23 1006.5R
SOLOMONS ISLAND  1200      44                N/A
PINEY POINT      1200          360/ 14/ 15   N/A

$$




USA.gov is the U.S. government's official web portal to all federal, state and local government web resources and services.